Time,TemperatureF,DewpointF,PressureIn,WindDirection,WindDirectionDegrees,WindSpeedMPH,WindSpeedGustMPH,Humidity,HourlyPrecipIn,Conditions,Clouds,dailyrainin,SoftwareType,DateUTC
2013-02-21 00:00:00,-3.0,-10.0,30.42,North,0,0.0,0.0,70,0.00,,,0.00,Meteo,2013-02-21 06:00:00,
2013-02-21 00:05:00,-3.0,-10.0,30.42,North,0,0.0,0.0,70,0.00,,,0.00,Meteo,2013-02-21 06:05:00,
2013-02-21 00:10:00,-3.0,-10.0,30.42,SSE,155,0.0,1.0,70,0.00,,,0.00,Meteo,2013-02-21 06:10:00,
2013-02-21 00:15:00,-3.0,-10.0,30.42,SSE,155,0.0,1.0,71,0.00,,,0.00,Meteo,2013-02-21 06:15:00,
2013-02-21 00:20:00,-2.0,-8.8,30.42,North,0,0.0,0.0,72,0.00,,,0.00,Meteo,2013-02-21 06:20:00,
2013-02-21 00:25:00,-2.0,-8.8,30.42,North,0,0.0,0.0,72,0.00,,,0.00,Meteo,2013-02-21 06:25:00,
2013-02-21 00:30:00,-2.0,-8.8,30.42,North,0,0.0,0.0,72,0.00,,,0.00,Meteo,2013-02-21 06:30:00,
2013-02-21 00:35:00,-2.0,-8.8,30.43,North,0,0.0,0.0,72,0.00,,,0.00,Meteo,2013-02-21 06:35:00,
2013-02-21 00:40:00,-2.0,-8.8,30.43,North,0,0.0,0.0,72,0.00,,,0.00,Meteo,2013-02-21 06:40:00,
2013-02-21 00:45:00,-2.0,-8.8,30.43,North,0,0.0,0.0,72,0.00,,,0.00,Meteo,2013-02-21 06:45:00,
2013-02-21 00:50:00,-2.0,-8.8,30.43,North,0,0.0,0.0,72,0.00,,,0.00,Meteo,2013-02-21 06:50:00,
2013-02-21 00:55:00,-2.0,-8.5,30.43,North,0,0.0,0.0,73,0.00,,,0.00,Meteo,2013-02-21 06:55:00,
2013-02-21 01:00:00,-2.0,-8.5,30.43,North,0,0.0,0.0,73,0.00,,,0.00,Meteo,2013-02-21 07:00:00,
2013-02-21 01:05:00,-2.0,-8.8,30.44,North,0,0.0,0.0,72,0.00,,,0.00,Meteo,2013-02-21 07:05:00,
2013-02-21 01:10:00,-2.0,-8.8,30.44,North,0,0.0,0.0,72,0.00,,,0.00,Meteo,2013-02-21 07:10:00,
2013-02-21 01:15:00,-2.0,-8.8,30.44,North,0,0.0,0.0,72,0.00,,,0.00,Meteo,2013-02-21 07:15:00,
2013-02-21 01:20:00,-2.0,-8.8,30.44,North,0,0.0,0.0,72,0.00,,,0.00,Meteo,2013-02-21 07:20:00,
2013-02-21 01:25:00,-2.0,-8.8,30.44,North,0,0.0,0.0,72,0.00,,,0.00,Meteo,2013-02-21 07:25:00,
2013-02-21 01:31:00,-2.0,-8.8,30.44,North,0,0.0,0.0,72,0.00,,,0.00,Meteo,2013-02-21 07:31:00,
2013-02-21 01:36:00,-2.0,-8.8,30.45,North,0,0.0,0.0,72,0.00,,,0.00,Meteo,2013-02-21 07:36:00,
2013-02-21 01:41:00,-2.0,-8.8,30.45,North,0,0.0,0.0,72,0.00,,,0.00,Meteo,2013-02-21 07:41:00,
2013-02-21 01:46:00,-1.0,-7.8,30.45,North,0,0.0,0.0,72,0.00,,,0.00,Meteo,2013-02-21 07:46:00,
2013-02-21 01:51:00,-1.0,-7.6,30.45,North,0,0.0,0.0,73,0.00,,,0.00,Meteo,2013-02-21 07:51:00,
2013-02-21 01:56:00,-1.0,-7.6,30.45,North,0,0.0,0.0,73,0.00,,,0.00,Meteo,2013-02-21 07:56:00,
2013-02-21 02:01:00,-1.0,-7.6,30.45,North,0,0.0,0.0,73,0.00,,,0.00,Meteo,2013-02-21 08:01:00,
2013-02-21 02:06:00,0.0,-6.3,30.45,North,0,0.0,0.0,74,0.00,,,0.00,Meteo,2013-02-21 08:06:00,
2013-02-21 02:11:00,0.0,-6.6,30.45,North,0,0.0,0.0,73,0.00,,,0.00,Meteo,2013-02-21 08:11:00,
2013-02-21 02:16:00,0.0,-6.3,30.45,North,0,0.0,0.0,74,0.00,,,0.00,Meteo,2013-02-21 08:16:00,
2013-02-21 02:21:00,0.0,-6.3,30.45,North,0,0.0,0.0,74,0.00,,,0.00,Meteo,2013-02-21 08:21:00,
2013-02-21 02:26:00,0.0,-6.0,30.45,SSE,155,0.0,1.0,75,0.00,,,0.00,Meteo,2013-02-21 08:26:00,
2013-02-21 02:31:00,0.0,-6.3,30.45,SSE,155,1.0,1.0,74,0.00,,,0.00,Meteo,2013-02-21 08:31:00,
2013-02-21 02:36:00,0.0,-6.3,30.45,North,0,0.0,0.0,74,0.00,,,0.00,Meteo,2013-02-21 08:36:00,
2013-02-21 02:41:00,1.0,-5.1,30.45,North,0,0.0,0.0,75,0.00,,,0.00,Meteo,2013-02-21 08:41:00,
2013-02-21 02:46:00,1.0,-5.3,30.45,North,0,0.0,0.0,74,0.00,,,0.00,Meteo,2013-02-21 08:46:00,
2013-02-21 02:51:00,1.0,-5.3,30.45,North,0,0.0,0.0,74,0.00,,,0.00,Meteo,2013-02-21 08:51:00,
2013-02-21 02:56:00,1.0,-5.3,30.45,North,0,0.0,0.0,74,0.00,,,0.00,Meteo,2013-02-21 08:56:00,
2013-02-21 03:01:00,1.0,-5.1,30.45,North,0,0.0,0.0,75,0.00,,,0.00,Meteo,2013-02-21 09:01:00,
2013-02-21 03:06:00,2.0,-4.4,30.45,North,0,0.0,0.0,74,0.00,,,0.00,Meteo,2013-02-21 09:06:00,
2013-02-21 03:11:00,2.0,-4.4,30.45,North,0,0.0,0.0,74,0.00,,,0.00,Meteo,2013-02-21 09:11:00,
2013-02-21 03:16:00,2.0,-4.4,30.45,North,0,0.0,0.0,74,0.00,,,0.00,Meteo,2013-02-21 09:16:00,
2013-02-21 03:21:00,2.0,-4.4,30.45,North,0,0.0,0.0,74,0.00,,,0.00,Meteo,2013-02-21 09:21:00,
2013-02-21 03:26:00,2.0,-4.4,30.45,North,0,0.0,0.0,74,0.00,,,0.00,Meteo,2013-02-21 09:26:00,
2013-02-21 03:31:00,2.0,-4.4,30.44,North,0,0.0,0.0,74,0.00,,,0.00,Meteo,2013-02-21 09:31:00,
2013-02-21 03:36:00,2.0,-4.4,30.45,North,0,0.0,0.0,74,0.00,,,0.00,Meteo,2013-02-21 09:36:00,
2013-02-21 03:41:00,2.0,-4.6,30.45,North,0,0.0,0.0,73,0.00,,,0.00,Meteo,2013-02-21 09:41:00,
2013-02-21 03:46:00,2.0,-4.6,30.45,North,0,0.0,0.0,73,0.00,,,0.00,Meteo,2013-02-21 09:46:00,
2013-02-21 03:51:00,2.0,-4.6,30.45,North,0,0.0,0.0,73,0.00,,,0.00,Meteo,2013-02-21 09:51:00,
2013-02-21 03:56:00,2.0,-4.6,30.45,North,0,0.0,0.0,73,0.00,,,0.00,Meteo,2013-02-21 09:56:00,
2013-02-21 04:01:00,2.0,-4.9,30.45,North,0,0.0,0.0,72,0.00,,,0.00,Meteo,2013-02-21 10:01:00,
2013-02-21 04:06:00,2.0,-4.9,30.46,SSE,155,0.0,1.0,72,0.00,,,0.00,Meteo,2013-02-21 10:06:00,
2013-02-21 04:11:00,2.0,-4.9,30.45,North,0,0.0,0.0,72,0.00,,,0.00,Meteo,2013-02-21 10:11:00,
2013-02-21 04:16:00,2.0,-4.9,30.45,North,0,0.0,0.0,72,0.00,,,0.00,Meteo,2013-02-21 10:16:00,
2013-02-21 04:21:00,2.0,-4.9,30.46,SSE,155,0.0,1.0,72,0.00,,,0.00,Meteo,2013-02-21 10:21:00,
2013-02-21 04:26:00,2.0,-4.9,30.46,SSE,153,1.0,2.0,72,0.00,,,0.00,Meteo,2013-02-21 10:26:00,
2013-02-21 04:31:00,2.0,-4.9,30.46,North,0,0.0,0.0,72,0.00,,,0.00,Meteo,2013-02-21 10:31:00,
2013-02-21 04:36:00,2.0,-4.9,30.47,SSE,153,0.0,1.0,72,0.00,,,0.00,Meteo,2013-02-21 10:36:00,
2013-02-21 04:41:00,2.0,-5.2,30.47,North,0,0.0,0.0,71,0.00,,,0.00,Meteo,2013-02-21 10:41:00,
2013-02-21 04:47:00,2.0,-4.9,30.48,North,0,0.0,0.0,72,0.00,,,0.00,Meteo,2013-02-21 10:47:00,
2013-02-21 04:52:00,2.0,-4.9,30.48,North,0,0.0,0.0,72,0.00,,,0.00,Meteo,2013-02-21 10:52:00,
2013-02-21 04:57:00,2.0,-4.9,30.48,North,0,0.0,0.0,72,0.00,,,0.00,Meteo,2013-02-21 10:57:00,
2013-02-21 05:02:00,2.0,-4.6,30.48,North,0,0.0,0.0,73,0.00,,,0.00,Meteo,2013-02-21 11:02:00,
2013-02-21 05:07:00,3.0,-3.7,30.48,North,0,0.0,0.0,73,0.00,,,0.00,Meteo,2013-02-21 11:07:00,
2013-02-21 05:12:00,3.0,-3.7,30.48,North,0,0.0,0.0,73,0.00,,,0.00,Meteo,2013-02-21 11:12:00,
2013-02-21 05:17:00,3.0,-3.7,30.48,North,0,0.0,0.0,73,0.00,,,0.00,Meteo,2013-02-21 11:17:00,
2013-02-21 05:22:00,3.0,-3.7,30.48,North,0,0.0,0.0,73,0.00,,,0.00,Meteo,2013-02-21 11:22:00,
2013-02-21 05:28:00,3.0,-3.7,30.48,North,0,0.0,0.0,73,0.00,,,0.00,Meteo,2013-02-21 11:28:00,
2013-02-21 05:33:00,3.0,-3.7,30.48,North,0,0.0,0.0,73,0.00,,,0.00,Meteo,2013-02-21 11:33:00,
2013-02-21 05:38:00,3.0,-3.4,30.48,North,0,0.0,0.0,74,0.00,,,0.00,Meteo,2013-02-21 11:38:00,
2013-02-21 05:43:00,3.0,-3.4,30.47,North,0,0.0,0.0,74,0.00,,,0.00,Meteo,2013-02-21 11:43:00,
2013-02-21 05:48:00,3.0,-3.4,30.47,North,0,0.0,0.0,74,0.00,,,0.00,Meteo,2013-02-21 11:48:00,
2013-02-21 05:53:00,4.0,-2.4,30.47,ESE,117,1.0,2.0,74,0.00,,,0.00,Meteo,2013-02-21 11:53:00,
2013-02-21 05:58:00,4.0,-2.4,30.46,ESE,106,0.0,1.0,74,0.00,,,0.00,Meteo,2013-02-21 11:58:00,
2013-02-21 06:03:00,4.0,-2.4,30.46,East,98,1.0,2.0,74,0.00,,,0.00,Meteo,2013-02-21 12:03:00,
2013-02-21 06:08:00,4.0,-2.7,30.45,North,0,0.0,0.0,73,0.00,,,0.00,Meteo,2013-02-21 12:08:00,
2013-02-21 06:13:00,4.0,-2.7,30.45,North,0,0.0,0.0,73,0.00,,,0.00,Meteo,2013-02-21 12:13:00,
2013-02-21 06:18:00,4.0,-2.7,30.45,North,0,0.0,0.0,73,0.00,,,0.00,Meteo,2013-02-21 12:18:00,
2013-02-21 06:23:00,3.0,-3.7,30.45,North,0,0.0,0.0,73,0.00,,,0.00,Meteo,2013-02-21 12:23:00,
2013-02-21 06:28:00,3.0,-4.3,30.45,North,0,0.0,0.0,71,0.00,,,0.00,Meteo,2013-02-21 12:28:00,
2013-02-21 06:33:00,3.0,-4.3,30.45,North,0,0.0,0.0,71,0.00,,,0.00,Meteo,2013-02-21 12:33:00,
2013-02-21 06:38:00,3.0,-4.0,30.45,North,0,0.0,0.0,72,0.00,,,0.00,Meteo,2013-02-21 12:38:00,
2013-02-21 06:43:00,3.0,-3.7,30.44,North,0,0.0,0.0,73,0.00,,,0.00,Meteo,2013-02-21 12:43:00,
2013-02-21 06:48:00,2.0,-4.6,30.44,North,0,0.0,0.0,73,0.00,,,0.00,Meteo,2013-02-21 12:48:00,
2013-02-21 06:53:00,2.0,-4.6,30.44,North,0,0.0,0.0,73,0.00,,,0.00,Meteo,2013-02-21 12:53:00,
2013-02-21 06:58:00,2.0,-4.6,30.43,North,0,0.0,0.0,73,0.00,,,0.00,Meteo,2013-02-21 12:58:00,
2013-02-21 07:03:00,2.0,-4.6,30.43,North,0,0.0,0.0,73,0.00,,,0.00,Meteo,2013-02-21 13:03:00,
2013-02-21 07:08:00,2.0,-4.9,30.44,North,0,0.0,0.0,72,0.00,,,0.00,Meteo,2013-02-21 13:08:00,
2013-02-21 07:13:00,2.0,-4.6,30.43,North,0,0.0,0.0,73,0.00,,,0.00,Meteo,2013-02-21 13:13:00,
2013-02-21 07:18:00,1.0,-5.6,30.43,WSW,242,0.0,1.0,73,0.00,,,0.00,Meteo,2013-02-21 13:18:00,
2013-02-21 07:23:00,1.0,-5.6,30.43,North,0,0.0,0.0,73,0.00,,,0.00,Meteo,2013-02-21 13:23:00,
2013-02-21 07:28:00,1.0,-5.6,30.43,North,0,0.0,0.0,73,0.00,,,0.00,Meteo,2013-02-21 13:28:00,
2013-02-21 07:33:00,1.0,-5.6,30.42,North,0,0.0,0.0,73,0.00,,,0.00,Meteo,2013-02-21 13:33:00,
2013-02-21 07:38:00,1.0,-5.6,30.42,North,0,0.0,0.0,73,0.00,,,0.00,Meteo,2013-02-21 13:38:00,
2013-02-21 07:43:00,2.0,-4.6,30.41,North,0,0.0,0.0,73,0.00,,,0.00,Meteo,2013-02-21 13:43:00,
2013-02-21 07:48:00,2.0,-4.4,30.40,North,0,0.0,0.0,74,0.00,,,0.00,Meteo,2013-02-21 13:48:00,
2013-02-21 07:53:00,2.0,-4.1,30.40,West,265,0.0,1.0,75,0.00,,,0.00,Meteo,2013-02-21 13:53:00,
2013-02-21 07:58:00,3.0,-3.1,30.40,North,0,0.0,0.0,75,0.00,,,0.00,Meteo,2013-02-21 13:58:00,
2013-02-21 08:03:00,3.0,-3.1,30.40,North,0,0.0,0.0,75,0.00,,,0.00,Meteo,2013-02-21 14:03:00,
2013-02-21 08:09:00,4.0,-2.1,30.39,North,0,0.0,0.0,75,0.00,,,0.00,Meteo,2013-02-21 14:09:00,
2013-02-21 08:14:00,5.0,-1.2,30.39,North,0,0.0,0.0,75,0.00,,,0.00,Meteo,2013-02-21 14:14:00,
2013-02-21 08:19:00,5.0,-1.2,30.38,North,0,0.0,0.0,75,0.00,,,0.00,Meteo,2013-02-21 14:19:00,
2013-02-21 08:24:00,6.0,-0.2,30.38,North,0,0.0,0.0,75,0.00,,,0.00,Meteo,2013-02-21 14:24:00,
2013-02-21 08:29:00,6.0,-0.2,30.38,North,0,0.0,0.0,75,0.00,,,0.00,Meteo,2013-02-21 14:29:00,
2013-02-21 08:34:00,7.0,0.8,30.38,North,0,0.0,0.0,75,0.00,,,0.00,Meteo,2013-02-21 14:34:00,
2013-02-21 08:39:00,8.0,1.7,30.39,North,0,0.0,0.0,75,0.00,,,0.00,Meteo,2013-02-21 14:39:00,
2013-02-21 08:44:00,8.0,2.0,30.40,SSW,209,1.0,2.0,76,0.00,,,0.00,Meteo,2013-02-21 14:44:00,
2013-02-21 08:49:00,9.0,3.0,30.40,SSW,211,2.0,3.0,76,0.00,,,0.00,Meteo,2013-02-21 14:49:00,
2013-02-21 08:54:00,10.0,4.0,30.43,SSW,195,2.0,3.0,76,0.00,,,0.00,Meteo,2013-02-21 14:54:00,
2013-02-21 08:59:00,11.0,4.6,30.44,South,189,1.0,2.0,75,0.00,,,0.00,Meteo,2013-02-21 14:59:00,
2013-02-21 09:04:00,11.0,4.9,30.45,South,169,1.0,3.0,76,0.00,,,0.00,Meteo,2013-02-21 15:04:00,
2013-02-21 09:09:00,12.0,5.9,30.46,SSE,148,0.0,1.0,76,0.00,,,0.00,Meteo,2013-02-21 15:09:00,
2013-02-21 09:14:00,13.0,6.9,30.46,South,174,2.0,4.0,76,0.00,,,0.00,Meteo,2013-02-21 15:14:00,
2013-02-21 09:20:00,14.0,7.6,30.47,South,190,2.0,3.0,75,0.00,,,0.00,Meteo,2013-02-21 15:20:00,
2013-02-21 09:25:00,14.0,7.3,30.48,South,178,2.0,3.0,74,0.00,,,0.00,Meteo,2013-02-21 15:25:00,
2013-02-21 09:30:00,15.0,7.9,30.48,SSE,162,0.0,3.0,73,0.00,,,0.00,Meteo,2013-02-21 15:30:00,
2013-02-21 09:35:00,15.0,7.6,30.47,South,187,2.0,3.0,72,0.00,,,0.00,Meteo,2013-02-21 15:35:00,
2013-02-21 09:40:00,15.0,7.6,30.47,SSW,198,1.0,3.0,72,0.00,,,0.00,Meteo,2013-02-21 15:40:00,
2013-02-21 09:45:00,15.0,7.6,30.47,SW,222,0.0,1.0,72,0.00,,,0.00,Meteo,2013-02-21 15:45:00,
2013-02-21 09:50:00,16.0,8.3,30.47,SW,230,0.0,2.0,71,0.00,,,0.00,Meteo,2013-02-21 15:50:00,
2013-02-21 09:55:00,16.0,8.3,30.47,North,0,0.0,0.0,71,0.00,,,0.00,Meteo,2013-02-21 15:55:00,
2013-02-21 10:00:00,16.0,8.3,30.47,SW,214,0.0,2.0,71,0.00,,,0.00,Meteo,2013-02-21 16:00:00,
2013-02-21 10:06:00,17.0,8.9,30.47,North,0,0.0,0.0,70,0.00,,,0.00,Meteo,2013-02-21 16:06:00,
2013-02-21 10:11:00,17.0,8.9,30.47,South,179,0.0,1.0,70,0.00,,,0.00,Meteo,2013-02-21 16:11:00,
2013-02-21 10:16:00,18.0,9.9,30.46,SE,127,0.0,2.0,70,0.00,,,0.00,Meteo,2013-02-21 16:16:00,
2013-02-21 10:21:00,19.0,11.0,30.46,ESE,122,0.0,1.0,69,0.00,,,0.00,Meteo,2013-02-21 16:21:00,
2013-02-21 10:26:00,19.0,10.0,30.45,East,82,2.0,3.0,68,0.00,,,0.00,Meteo,2013-02-21 16:26:00,
2013-02-21 10:31:00,19.0,10.0,30.45,East,79,0.0,2.0,68,0.00,,,0.00,Meteo,2013-02-21 16:31:00,
2013-02-21 10:36:00,20.0,11.0,30.45,East,94,1.0,2.0,68,0.00,,,0.00,Meteo,2013-02-21 16:36:00,
2013-02-21 10:41:00,20.0,10.0,30.45,East,82,4.0,6.0,66,0.00,,,0.00,Meteo,2013-02-21 16:41:00,
2013-02-21 10:46:00,20.0,10.0,30.45,ENE,64,4.0,7.0,66,0.00,,,0.00,Meteo,2013-02-21 16:46:00,
2013-02-21 10:51:00,20.0,10.0,30.44,ENE,77,4.0,6.0,66,0.00,,,0.00,Meteo,2013-02-21 16:51:00,
2013-02-21 10:56:00,21.0,11.0,30.43,East,83,2.0,5.0,66,0.00,,,0.00,Meteo,2013-02-21 16:56:00,
2013-02-21 11:01:00,21.0,11.0,30.43,ENE,57,4.0,6.0,64,0.00,,,0.00,Meteo,2013-02-21 17:01:00,
2013-02-21 11:06:00,21.0,11.0,30.43,NE,48,1.0,2.0,65,0.00,,,0.00,Meteo,2013-02-21 17:06:00,
2013-02-21 11:11:00,21.0,11.0,30.44,NE,39,1.0,2.0,66,0.00,,,0.00,Meteo,2013-02-21 17:11:00,
2013-02-21 11:16:00,21.0,11.0,30.43,ENE,66,4.0,7.0,66,0.00,,,0.00,Meteo,2013-02-21 17:16:00,
2013-02-21 11:21:00,21.0,11.0,30.44,NNW,345,3.0,5.0,66,0.00,,,0.00,Meteo,2013-02-21 17:21:00,
2013-02-21 11:26:00,20.0,10.0,30.43,North,354,4.0,6.0,66,0.00,,,0.00,Meteo,2013-02-21 17:26:00,
2013-02-21 11:31:00,20.0,11.0,30.44,NNW,344,2.0,4.0,67,0.00,,,0.00,Meteo,2013-02-21 17:31:00,
2013-02-21 11:37:00,20.0,11.0,30.44,NNW,340,4.0,6.0,68,0.00,,,0.00,Meteo,2013-02-21 17:37:00,
2013-02-21 11:42:00,20.0,11.0,30.44,NNW,346,3.0,6.0,69,0.00,,,0.00,Meteo,2013-02-21 17:42:00,
2013-02-21 11:47:00,20.0,11.0,30.43,NE,35,2.0,7.0,69,0.00,,,0.00,Meteo,2013-02-21 17:47:00,
2013-02-21 11:52:00,21.0,12.0,30.43,ENE,77,5.0,7.0,69,0.00,,,0.00,Meteo,2013-02-21 17:52:00,
2013-02-21 11:57:00,22.0,13.0,30.43,NNE,32,4.0,8.0,67,0.00,,,0.00,Meteo,2013-02-21 17:57:00,
2013-02-21 12:02:00,22.0,13.0,30.43,NE,37,5.0,6.0,67,0.00,,,0.00,Meteo,2013-02-21 18:02:00,
2013-02-21 12:07:00,22.0,12.0,30.44,NNE,32,4.0,6.0,65,0.00,,,0.00,Meteo,2013-02-21 18:07:00,
2013-02-21 12:12:00,22.0,12.0,30.43,ENE,63,6.0,8.0,65,0.00,,,0.00,Meteo,2013-02-21 18:12:00,
2013-02-21 12:17:00,23.0,13.0,30.43,NE,55,5.0,8.0,65,0.00,,,0.00,Meteo,2013-02-21 18:17:00,
2013-02-21 12:22:00,22.0,12.0,30.43,ENE,59,5.0,12.0,66,0.00,,,0.00,Meteo,2013-02-21 18:22:00,
2013-02-21 12:27:00,23.0,13.0,30.43,ENE,68,6.0,9.0,66,0.00,,,0.00,Meteo,2013-02-21 18:27:00,
2013-02-21 12:32:00,24.0,13.0,30.43,ENE,69,5.0,10.0,63,0.00,,,0.00,Meteo,2013-02-21 18:32:00,
2013-02-21 12:37:00,24.0,13.0,30.43,ENE,70,4.0,6.0,63,0.00,,,0.00,Meteo,2013-02-21 18:37:00,
2013-02-21 12:42:00,24.0,13.0,30.43,NNE,32,3.0,4.0,63,0.00,,,0.00,Meteo,2013-02-21 18:42:00,
2013-02-21 12:47:00,24.0,14.0,30.42,NE,53,4.0,6.0,64,0.00,,,0.00,Meteo,2013-02-21 18:47:00,
2013-02-21 12:52:00,24.0,14.0,30.42,ENE,74,3.0,4.0,64,0.00,,,0.00,Meteo,2013-02-21 18:52:00,
2013-02-21 12:57:00,24.0,13.0,30.42,NNE,27,4.0,7.0,63,0.00,,,0.00,Meteo,2013-02-21 18:57:00,
2013-02-21 13:02:00,23.0,12.0,30.42,NNE,28,4.0,7.0,63,0.00,,,0.00,Meteo,2013-02-21 19:02:00,
2013-02-21 13:07:00,23.0,13.0,30.42,ENE,74,6.0,9.0,65,0.00,,,0.00,Meteo,2013-02-21 19:07:00,
2013-02-21 13:12:00,23.0,13.0,30.42,ENE,76,4.0,6.0,66,0.00,,,0.00,Meteo,2013-02-21 19:12:00,
2013-02-21 13:17:00,23.0,13.0,30.41,NE,50,3.0,5.0,66,0.00,,,0.00,Meteo,2013-02-21 19:17:00,
2013-02-21 13:22:00,24.0,14.0,30.41,ENE,60,6.0,9.0,65,0.00,,,0.00,Meteo,2013-02-21 19:22:00,
2013-02-21 13:27:00,23.0,13.0,30.41,ENE,63,5.0,7.0,66,0.00,,,0.00,Meteo,2013-02-21 19:27:00,
2013-02-21 13:32:00,23.0,13.0,30.41,NE,36,4.0,7.0,66,0.00,,,0.00,Meteo,2013-02-21 19:32:00,
2013-02-21 13:37:00,23.0,14.0,30.40,NE,52,4.0,6.0,67,0.00,,,0.00,Meteo,2013-02-21 19:37:00,
2013-02-21 13:42:00,23.0,14.0,30.40,NNE,26,5.0,9.0,69,0.00,,,0.00,Meteo,2013-02-21 19:42:00,
2013-02-21 13:47:00,23.0,14.0,30.39,NE,45,5.0,7.0,69,0.00,,,0.00,Meteo,2013-02-21 19:47:00,
2013-02-21 13:52:00,22.0,13.0,30.39,NNE,32,5.0,7.0,68,0.00,,,0.00,Meteo,2013-02-21 19:52:00,
2013-02-21 13:57:00,23.0,14.0,30.39,ENE,72,6.0,9.0,69,0.00,,,0.00,Meteo,2013-02-21 19:57:00,
2013-02-21 14:02:00,23.0,14.0,30.38,NE,50,6.0,9.0,69,0.00,,,0.00,Meteo,2013-02-21 20:02:00,
2013-02-21 14:07:00,23.0,15.0,30.38,NE,53,4.0,6.0,71,0.00,,,0.00,Meteo,2013-02-21 20:07:00,
2013-02-21 14:12:00,23.0,15.0,30.38,NE,50,4.0,7.0,72,0.00,,,0.00,Meteo,2013-02-21 20:12:00,
2013-02-21 14:17:00,22.0,14.0,30.38,NNE,29,6.0,8.0,72,0.00,,,0.00,Meteo,2013-02-21 20:17:00,
2013-02-21 14:22:00,22.0,15.0,30.38,NE,36,5.0,6.0,73,0.00,,,0.00,Meteo,2013-02-21 20:22:00,
2013-02-21 14:27:00,22.0,15.0,30.39,NE,46,6.0,9.0,73,0.00,,,0.00,Meteo,2013-02-21 20:27:00,
2013-02-21 14:33:00,23.0,16.0,30.38,ENE,57,3.0,7.0,73,0.00,,,0.00,Meteo,2013-02-21 20:33:00,
2013-02-21 14:38:00,23.0,16.0,30.38,NNE,28,4.0,6.0,74,0.00,,,0.00,Meteo,2013-02-21 20:38:00,
2013-02-21 14:43:00,23.0,16.0,30.38,NE,40,5.0,6.0,74,0.00,,,0.00,Meteo,2013-02-21 20:43:00,
2013-02-21 14:48:00,23.0,16.0,30.37,NNE,18,5.0,7.0,75,0.00,,,0.00,Meteo,2013-02-21 20:48:00,
2013-02-21 14:53:00,23.0,16.0,30.37,ENE,67,6.0,8.0,75,0.00,,,0.00,Meteo,2013-02-21 20:53:00,
2013-02-21 14:58:00,23.0,16.0,30.36,ENE,58,7.0,11.0,74,0.00,,,0.00,Meteo,2013-02-21 20:58:00,
2013-02-21 15:03:00,23.0,16.0,30.36,NNE,33,5.0,7.0,75,0.00,,,0.00,Meteo,2013-02-21 21:03:00,
2013-02-21 15:08:00,23.0,16.0,30.36,ENE,78,10.0,15.0,74,0.00,,,0.00,Meteo,2013-02-21 21:08:00,
2013-02-21 15:13:00,23.0,16.0,30.36,ENE,69,3.0,5.0,74,0.00,,,0.00,Meteo,2013-02-21 21:13:00,
2013-02-21 15:19:00,23.0,16.0,30.36,ENE,73,3.0,5.0,74,0.00,,,0.00,Meteo,2013-02-21 21:19:00,
2013-02-21 15:24:00,23.0,16.0,30.36,NNE,25,4.0,6.0,75,0.00,,,0.00,Meteo,2013-02-21 21:24:00,
2013-02-21 15:29:00,23.0,17.0,30.35,NE,49,6.0,9.0,76,0.00,,,0.00,Meteo,2013-02-21 21:29:00,
2013-02-21 15:34:00,23.0,17.0,30.35,NE,51,4.0,6.0,76,0.00,,,0.00,Meteo,2013-02-21 21:34:00,
2013-02-21 15:39:00,23.0,17.0,30.35,NE,43,6.0,8.0,77,0.00,,,0.00,Meteo,2013-02-21 21:39:00,
2013-02-21 15:44:00,23.0,17.0,30.35,NE,55,6.0,10.0,78,0.00,,,0.00,Meteo,2013-02-21 21:44:00,
2013-02-21 15:49:00,23.0,17.0,30.35,ENE,78,5.0,7.0,78,0.00,,,0.00,Meteo,2013-02-21 21:49:00,
2013-02-21 15:54:00,23.0,17.0,30.35,ENE,63,8.0,11.0,79,0.00,,,0.00,Meteo,2013-02-21 21:54:00,
2013-02-21 15:59:00,23.0,17.0,30.35,ENE,59,6.0,8.0,79,0.00,,,0.00,Meteo,2013-02-21 21:59:00,
2013-02-21 16:04:00,23.0,17.0,30.35,NE,48,6.0,10.0,79,0.00,,,0.00,Meteo,2013-02-21 22:04:00,
2013-02-21 16:09:00,23.0,17.0,30.35,ENE,63,4.0,7.0,79,0.00,,,0.00,Meteo,2013-02-21 22:09:00,
2013-02-21 16:14:00,23.0,17.0,30.34,NE,47,5.0,7.0,78,0.00,,,0.00,Meteo,2013-02-21 22:14:00,
2013-02-21 16:19:00,23.0,17.0,30.34,ENE,66,5.0,11.0,78,0.00,,,0.00,Meteo,2013-02-21 22:19:00,
2013-02-21 16:24:00,23.0,17.0,30.35,ENE,69,7.0,11.0,78,0.00,,,0.00,Meteo,2013-02-21 22:24:00,
2013-02-21 16:29:00,23.0,17.0,30.35,NE,48,3.0,5.0,79,0.00,,,0.00,Meteo,2013-02-21 22:29:00,
2013-02-21 16:34:00,23.0,17.0,30.35,East,82,7.0,10.0,79,0.00,,,0.00,Meteo,2013-02-21 22:34:00,
2013-02-21 16:39:00,23.0,17.0,30.35,NE,51,3.0,6.0,78,0.00,,,0.00,Meteo,2013-02-21 22:39:00,
2013-02-21 16:44:00,23.0,17.0,30.35,ENE,59,5.0,8.0,77,0.00,,,0.00,Meteo,2013-02-21 22:44:00,
2013-02-21 16:49:00,23.0,17.0,30.35,NE,45,3.0,4.0,77,0.00,,,0.00,Meteo,2013-02-21 22:49:00,
2013-02-21 16:54:00,23.0,17.0,30.34,NE,34,3.0,5.0,78,0.00,,,0.00,Meteo,2013-02-21 22:54:00,
2013-02-21 16:59:00,23.0,17.0,30.35,NE,48,3.0,5.0,78,0.00,,,0.00,Meteo,2013-02-21 22:59:00,
2013-02-21 17:04:00,23.0,17.0,30.35,ENE,60,5.0,8.0,78,0.00,,,0.00,Meteo,2013-02-21 23:04:00,
2013-02-21 17:09:00,23.0,17.0,30.35,ENE,73,6.0,9.0,78,0.00,,,0.00,Meteo,2013-02-21 23:09:00,
2013-02-21 17:14:00,23.0,17.0,30.35,ENE,62,4.0,7.0,77,0.00,,,0.00,Meteo,2013-02-21 23:14:00,
2013-02-21 17:19:00,22.0,16.0,30.35,NE,51,3.0,5.0,77,0.00,,,0.00,Meteo,2013-02-21 23:19:00,
2013-02-21 17:24:00,22.0,16.0,30.35,NNE,33,3.0,5.0,77,0.00,,,0.00,Meteo,2013-02-21 23:24:00,
2013-02-21 17:30:00,22.0,16.0,30.34,NE,51,2.0,4.0,77,0.00,,,0.00,Meteo,2013-02-21 23:30:00,
2013-02-21 17:35:00,22.0,16.0,30.34,NE,41,2.0,5.0,77,0.00,,,0.00,Meteo,2013-02-21 23:35:00,
2013-02-21 17:40:00,22.0,16.0,30.34,NE,48,2.0,4.0,77,0.00,,,0.00,Meteo,2013-02-21 23:40:00,
2013-02-21 17:45:00,22.0,16.0,30.34,NE,53,3.0,5.0,77,0.00,,,0.00,Meteo,2013-02-21 23:45:00,
2013-02-21 17:50:00,22.0,16.0,30.33,NE,44,2.0,4.0,77,0.00,,,0.00,Meteo,2013-02-21 23:50:00,
2013-02-21 17:55:00,22.0,16.0,30.33,NNE,33,1.0,2.0,77,0.00,,,0.00,Meteo,2013-02-21 23:55:00,
2013-02-21 18:00:00,23.0,17.0,30.33,NE,36,3.0,5.0,77,0.00,,,0.00,Meteo,2013-02-22 00:00:00,
2013-02-21 18:05:00,23.0,17.0,30.33,NE,49,6.0,8.0,77,0.00,,,0.00,Meteo,2013-02-22 00:05:00,
2013-02-21 18:10:00,23.0,17.0,30.33,NNE,29,3.0,6.0,77,0.00,,,0.00,Meteo,2013-02-22 00:10:00,
2013-02-21 18:15:00,23.0,17.0,30.32,NE,54,4.0,7.0,77,0.00,,,0.00,Meteo,2013-02-22 00:15:00,
2013-02-21 18:20:00,23.0,17.0,30.33,NE,39,4.0,7.0,77,0.00,,,0.00,Meteo,2013-02-22 00:20:00,
2013-02-21 18:25:00,23.0,17.0,30.33,NE,48,5.0,7.0,77,0.00,,,0.00,Meteo,2013-02-22 00:25:00,
2013-02-21 18:30:00,23.0,17.0,30.32,NE,53,2.0,4.0,77,0.00,,,0.00,Meteo,2013-02-22 00:30:00,
2013-02-21 18:35:00,23.0,17.0,30.32,NE,46,3.0,5.0,77,0.00,,,0.00,Meteo,2013-02-22 00:35:00,
2013-02-21 18:40:00,23.0,17.0,30.32,NE,56,3.0,4.0,77,0.00,,,0.00,Meteo,2013-02-22 00:40:00,
2013-02-21 18:45:00,23.0,17.0,30.32,NE,44,5.0,8.0,77,0.00,,,0.00,Meteo,2013-02-22 00:45:00,
2013-02-21 18:50:00,23.0,17.0,30.31,NE,46,5.0,8.0,77,0.00,,,0.00,Meteo,2013-02-22 00:50:00,
2013-02-21 18:55:00,23.0,17.0,30.31,ENE,62,5.0,11.0,77,0.00,,,0.00,Meteo,2013-02-22 00:55:00,
2013-02-21 19:01:00,23.0,17.0,30.31,NE,43,2.0,5.0,76,0.00,,,0.00,Meteo,2013-02-22 01:01:00,
2013-02-21 19:06:00,23.0,17.0,30.31,NE,49,3.0,4.0,77,0.00,,,0.00,Meteo,2013-02-22 01:06:00,
2013-02-21 19:11:00,23.0,17.0,30.31,NE,56,4.0,5.0,77,0.00,,,0.00,Meteo,2013-02-22 01:11:00,
2013-02-21 19:16:00,23.0,17.0,30.30,NE,36,3.0,5.0,77,0.00,,,0.00,Meteo,2013-02-22 01:16:00,
2013-02-21 19:21:00,23.0,17.0,30.30,NNE,30,4.0,7.0,78,0.00,,,0.00,Meteo,2013-02-22 01:21:00,
2013-02-21 19:26:00,23.0,17.0,30.29,NE,45,3.0,5.0,78,0.00,,,0.00,Meteo,2013-02-22 01:26:00,
2013-02-21 19:31:00,23.0,17.0,30.29,NE,42,3.0,5.0,78,0.00,,,0.00,Meteo,2013-02-22 01:31:00,
2013-02-21 19:36:00,23.0,17.0,30.29,NE,50,3.0,5.0,78,0.00,,,0.00,Meteo,2013-02-22 01:36:00,
2013-02-21 19:41:00,22.0,16.0,30.29,ENE,70,6.0,8.0,78,0.00,,,0.00,Meteo,2013-02-22 01:41:00,
2013-02-21 19:46:00,23.0,17.0,30.30,NE,48,5.0,7.0,78,0.00,,,0.00,Meteo,2013-02-22 01:46:00,
2013-02-21 19:52:00,23.0,17.0,30.29,ENE,60,6.0,11.0,78,0.00,,,0.00,Meteo,2013-02-22 01:52:00,
2013-02-21 19:57:00,23.0,17.0,30.29,NE,56,4.0,7.0,78,0.00,,,0.00,Meteo,2013-02-22 01:57:00,
2013-02-21 20:02:00,23.0,17.0,30.28,ENE,60,3.0,5.0,78,0.00,,,0.00,Meteo,2013-02-22 02:02:00,
2013-02-21 20:07:00,23.0,17.0,30.29,ENE,73,6.0,9.0,78,0.00,,,0.00,Meteo,2013-02-22 02:07:00,
2013-02-21 20:12:00,23.0,17.0,30.29,NE,41,5.0,9.0,78,0.00,,,0.00,Meteo,2013-02-22 02:12:00,
2013-02-21 20:17:00,22.0,16.0,30.28,NNE,33,4.0,6.0,77,0.00,,,0.00,Meteo,2013-02-22 02:17:00,
2013-02-21 20:22:00,22.0,16.0,30.28,ENE,70,5.0,6.0,77,0.00,,,0.00,Meteo,2013-02-22 02:22:00,
2013-02-21 20:27:00,22.0,16.0,30.28,ENE,72,3.0,4.0,77,0.00,,,0.00,Meteo,2013-02-22 02:27:00,
2013-02-21 20:32:00,22.0,16.0,30.27,ENE,67,4.0,7.0,77,0.00,,,0.00,Meteo,2013-02-22 02:32:00,
2013-02-21 20:37:00,22.0,16.0,30.27,East,83,5.0,9.0,77,0.00,,,0.00,Meteo,2013-02-22 02:37:00,
2013-02-21 20:42:00,22.0,16.0,30.27,ENE,61,5.0,8.0,77,0.00,,,0.00,Meteo,2013-02-22 02:42:00,
2013-02-21 20:47:00,22.0,16.0,30.27,ENE,61,3.0,4.0,77,0.00,,,0.00,Meteo,2013-02-22 02:47:00,
2013-02-21 20:52:00,22.0,16.0,30.27,East,82,4.0,5.0,77,0.00,,,0.00,Meteo,2013-02-22 02:52:00,
2013-02-21 20:57:00,22.0,16.0,30.27,ENE,58,7.0,9.0,77,0.00,,,0.00,Meteo,2013-02-22 02:57:00,
2013-02-21 21:02:00,22.0,16.0,30.27,ENE,69,5.0,8.0,77,0.00,,,0.00,Meteo,2013-02-22 03:02:00,
2013-02-21 21:07:00,22.0,16.0,30.27,ENE,77,9.0,11.0,77,0.00,,,0.00,Meteo,2013-02-22 03:07:00,
2013-02-21 21:12:00,22.0,16.0,30.26,ENE,74,5.0,8.0,77,0.00,,,0.00,Meteo,2013-02-22 03:12:00,
2013-02-21 21:17:00,22.0,16.0,30.26,ENE,58,3.0,5.0,77,0.00,,,0.00,Meteo,2013-02-22 03:17:00,
2013-02-21 21:22:00,22.0,16.0,30.25,NE,54,5.0,7.0,77,0.00,,,0.00,Meteo,2013-02-22 03:22:00,
2013-02-21 21:27:00,22.0,16.0,30.25,ENE,71,5.0,6.0,78,0.00,,,0.00,Meteo,2013-02-22 03:27:00,
2013-02-21 21:32:00,22.0,16.0,30.25,ENE,77,3.0,5.0,78,0.00,,,0.00,Meteo,2013-02-22 03:32:00,
2013-02-21 21:37:00,22.0,16.0,30.25,ENE,70,4.0,7.0,78,0.00,,,0.00,Meteo,2013-02-22 03:37:00,
2013-02-21 21:42:00,22.0,16.0,30.25,NE,51,6.0,8.0,77,0.00,,,0.00,Meteo,2013-02-22 03:42:00,
2013-02-21 21:47:00,22.0,16.0,30.25,ENE,62,4.0,7.0,77,0.00,,,0.00,Meteo,2013-02-22 03:47:00,
2013-02-21 21:52:00,21.0,15.0,30.25,ENE,76,7.0,9.0,78,0.00,,,0.00,Meteo,2013-02-22 03:52:00,
2013-02-21 21:57:00,21.0,15.0,30.24,ENE,77,4.0,7.0,78,0.00,,,0.00,Meteo,2013-02-22 03:57:00,
2013-02-21 22:02:00,21.0,15.0,30.25,ENE,71,5.0,7.0,78,0.00,,,0.00,Meteo,2013-02-22 04:02:00,
2013-02-21 22:07:00,21.0,15.0,30.24,ENE,72,6.0,8.0,78,0.00,,,0.00,Meteo,2013-02-22 04:07:00,
2013-02-21 22:12:00,21.0,15.0,30.24,ENE,78,9.0,12.0,78,0.00,,,0.00,Meteo,2013-02-22 04:12:00,
2013-02-21 22:17:00,21.0,16.0,30.23,ENE,74,4.0,6.0,79,0.00,,,0.00,Meteo,2013-02-22 04:17:00,
2013-02-21 22:22:00,21.0,16.0,30.23,NE,56,5.0,7.0,79,0.00,,,0.00,Meteo,2013-02-22 04:22:00,
2013-02-21 22:27:00,21.0,16.0,30.23,ENE,57,4.0,5.0,79,0.00,,,0.00,Meteo,2013-02-22 04:27:00,
2013-02-21 22:32:00,21.0,16.0,30.22,ENE,62,4.0,5.0,79,0.00,,,0.00,Meteo,2013-02-22 04:32:00,
2013-02-21 22:37:00,21.0,16.0,30.22,ENE,72,4.0,7.0,80,0.00,,,0.00,Meteo,2013-02-22 04:37:00,
2013-02-21 22:42:00,21.0,16.0,30.22,NE,48,4.0,6.0,80,0.00,,,0.00,Meteo,2013-02-22 04:42:00,
2013-02-21 22:47:00,21.0,16.0,30.22,East,80,4.0,7.0,80,0.00,,,0.00,Meteo,2013-02-22 04:47:00,
2013-02-21 22:52:00,21.0,16.0,30.21,ENE,74,3.0,5.0,81,0.00,,,0.00,Meteo,2013-02-22 04:52:00,
2013-02-21 22:57:00,21.0,16.0,30.21,East,81,4.0,6.0,81,0.00,,,0.00,Meteo,2013-02-22 04:57:00,
2013-02-21 23:00:00,21.0,16.0,30.20,East,85,4.0,7.0,81,0.00,,,0.00,Meteo,2013-02-22 05:00:00,
2013-02-21 23:01:00,21.0,16.0,30.20,East,83,3.0,5.0,81,0.00,,,0.00,Meteo,2013-02-22 05:01:00,
2013-02-21 23:06:00,21.0,16.0,30.20,ENE,66,2.0,5.0,81,0.00,,,0.00,Meteo,2013-02-22 05:06:00,
2013-02-21 23:11:00,21.0,16.0,30.20,ENE,66,2.0,4.0,82,0.00,,,0.00,Meteo,2013-02-22 05:11:00,
2013-02-21 23:13:00,21.0,16.0,30.19,ENE,66,4.0,6.0,82,0.00,,,0.00,Meteo,2013-02-22 05:13:00,
2013-02-21 23:18:00,21.0,16.0,30.19,ENE,73,3.0,6.0,81,0.00,,,0.00,Meteo,2013-02-22 05:18:00,
2013-02-21 23:23:00,21.0,16.0,30.19,ENE,65,4.0,8.0,82,0.00,,,0.00,Meteo,2013-02-22 05:23:00,
2013-02-21 23:28:00,21.0,16.0,30.19,ENE,68,4.0,6.0,82,0.00,,,0.00,Meteo,2013-02-22 05:28:00,
2013-02-21 23:33:00,21.0,16.0,30.19,ENE,73,4.0,8.0,82,0.00,,,0.00,Meteo,2013-02-22 05:33:00,
2013-02-21 23:36:00,21.0,16.0,30.19,East,85,5.0,9.0,81,0.00,,,0.00,Meteo,2013-02-22 05:36:00,
2013-02-21 23:41:00,21.0,16.0,30.19,ENE,77,3.0,6.0,82,0.00,,,0.00,Meteo,2013-02-22 05:41:00,
2013-02-21 23:46:00,21.0,16.0,30.18,ENE,67,2.0,3.0,81,0.00,,,0.00,Meteo,2013-02-22 05:46:00,
2013-02-21 23:51:00,21.0,16.0,30.18,ENE,67,3.0,4.0,81,0.00,,,0.00,Meteo,2013-02-22 05:51:00,
2013-02-21 23:57:00,21.0,16.0,30.18,East,83,4.0,5.0,81,0.00,,,0.00,Meteo,2013-02-22 05:57:00,